Datum;Richtung;Anzahl Messungen;Anzahl Fahrzeuge;Durchschnittsgeschwindigkeit;Höchstgeschwindigkeit
24.08.2021 00:00;1;29;29;23.00;40.00
24.08.2021 00:30;1;16;16;26.81;37.00
24.08.2021 01:00;1;13;13;26.15;35.00
24.08.2021 01:30;1;6;6;35.83;54.00
24.08.2021 02:00;1;10;10;33.90;42.00
24.08.2021 02:30;1;3;3;34.67;41.00
24.08.2021 04:00;1;3;3;29.00;35.00
24.08.2021 04:30;1;9;9;26.33;32.00
24.08.2021 05:00;1;11;11;24.64;32.00
24.08.2021 05:30;1;22;22;23. Sep;41.00
24.08.2021 06:00;1;36;36;25. Nov;38.00
24.08.2021 06:30;1;40;40;21.80;39.00
24.08.2021 07:00;1;45;45;23.44;38.00
24.08.2021 07:30;1;65;65;22.66;33.00
24.08.2021 08:00;1;69;69;23.65;34.00
24.08.2021 08:30;1;74;74;22.61;41.00
24.08.2021 09:00;1;107;107;23.71;41.00
24.08.2021 09:30;1;96;96;23.48;38.00
24.08.2021 10:00;1;90;90;23.16;36.00
24.08.2021 10:30;1;86;86;23.34;43.00
24.08.2021 11:00;1;87;87;22.84;48.00
24.08.2021 11:30;1;111;111;22.83;41.00
24.08.2021 12:00;1;116;116;22.44;35.00
24.08.2021 12:30;1;127;127;23. Jun;45.00
24.08.2021 13:00;1;112;112;23.32;38.00
24.08.2021 13:30;1;126;126;23.13;56.00
24.08.2021 14:00;1;111;111;22.68;41.00
24.08.2021 14:30;1;101;101;22.60;37.00
24.08.2021 15:00;1;131;131;23.32;52.00
24.08.2021 15:30;1;124;124;23.19;40.00
24.08.2021 16:00;1;128;128;22.69;39.00
24.08.2021 16:30;1;108;108;22.38;36.00
24.08.2021 17:00;1;103;103;23.00;35.00
24.08.2021 17:30;1;140;140;23.56;41.00
24.08.2021 18:00;1;136;136;22.99;37.00
24.08.2021 18:30;1;122;122;22.94;57.00
24.08.2021 19:00;1;114;114;23. Jan;42.00
24.08.2021 19:30;1;100;100;23.77;43.00
24.08.2021 20:00;1;99;99;23.28;53.00
24.08.2021 20:30;1;81;81;24. Feb;40.00
24.08.2021 21:00;1;62;62;24.95;39.00
24.08.2021 21:30;1;74;74;24.16;46.00
24.08.2021 22:00;1;71;71;24.69;44.00
24.08.2021 22:30;1;69;69;25.99;61.00
24.08.2021 23:00;1;44;44;26.00;50.00
24.08.2021 23:30;1;28;28;26.21;49.00
25.08.2021 00:00;1;23;23;26.35;40.00
25.08.2021 00:30;1;14;14;28.14;36.00
25.08.2021 01:00;1;15;15;26.73;43.00
25.08.2021 01:30;1;9;9;28.44;40.00
25.08.2021 02:00;1;3;3;34.33;37.00
25.08.2021 02:30;1;3;3;36.67;47.00
25.08.2021 03:30;1;4;4;32.25;45.00
25.08.2021 04:00;1;3;3;29.33;37.00
25.08.2021 04:30;1;7;7;23.43;32.00
25.08.2021 05:00;1;22;22;25.73;43.00
25.08.2021 05:30;1;24;24;22.92;41.00
25.08.2021 06:00;1;28;28;25.71;35.00
25.08.2021 06:30;1;40;40;22.27;28.00
25.08.2021 07:00;1;56;56;23.62;31.00
25.08.2021 07:30;1;68;68;23.65;36.00
25.08.2021 08:00;1;61;61;23.67;37.00
25.08.2021 08:30;1;95;95;24. Dez;38.00
25.08.2021 09:00;1;77;77;23.61;37.00
25.08.2021 09:30;1;95;95;24.27;43.00
25.08.2021 10:00;1;97;97;23.73;43.00
25.08.2021 10:30;1;111;111;23.48;37.00
25.08.2021 11:00;1;92;92;23.77;40.00
25.08.2021 11:30;1;102;102;23.62;43.00
25.08.2021 12:00;1;102;102;22.86;38.00
25.08.2021 12:30;1;94;94;23.87;40.00
25.08.2021 13:00;1;107;107;23. Jul;42.00
25.08.2021 13:30;1;108;108;23.78;37.00
25.08.2021 14:00;1;117;117;23.68;59.00
25.08.2021 14:30;1;121;121;22.95;42.00
25.08.2021 15:00;1;111;111;22.95;37.00
25.08.2021 15:30;1;118;118;22.78;44.00
25.08.2021 16:00;1;130;130;23.44;43.00
25.08.2021 16:30;1;120;120;23.27;39.00
25.08.2021 17:00;1;102;102;22.90;43.00
25.08.2021 17:30;1;118;118;23.13;42.00
25.08.2021 18:00;1;124;124;24. Mai;47.00
25.08.2021 18:30;1;117;117;24. Jan;44.00
25.08.2021 19:00;1;124;124;23.81;41.00
25.08.2021 19:30;1;121;121;23.88;46.00
25.08.2021 20:00;1;90;90;22.68;35.00
25.08.2021 20:30;1;80;80;23.34;44.00
25.08.2021 21:00;1;82;82;23.37;40.00
25.08.2021 21:30;1;84;84;24. Okt;40.00
25.08.2021 22:00;1;69;69;24.28;43.00
25.08.2021 22:30;1;75;75;27. Nov;65.00
25.08.2021 23:00;1;45;45;25. Jul;40.00
25.08.2021 23:30;1;39;39;26.23;50.00
26.08.2021 00:00;1;29;29;26.48;54.00
26.08.2021 00:30;1;19;19;27. Nov;40.00
26.08.2021 01:00;1;21;21;27.62;39.00
26.08.2021 01:30;1;14;14;28.93;44.00
26.08.2021 02:00;1;2;2;26.50;29.00
26.08.2021 02:30;1;4;4;34.50;43.00
26.08.2021 03:00;1;4;4;31.00;41.00
26.08.2021 03:30;1;2;2;25.50;30.00
26.08.2021 04:30;1;10;10;28. Okt;45.00
26.08.2021 05:00;1;12;12;26.33;40.00
26.08.2021 05:30;1;24;24;26.83;41.00
26.08.2021 06:00;1;24;24;22.71;31.00
26.08.2021 06:30;1;45;45;23.49;39.00
26.08.2021 07:00;1;47;47;24. Feb;42.00
26.08.2021 07:30;1;63;63;23.86;42.00
26.08.2021 08:00;1;73;73;23.71;37.00
26.08.2021 08:30;1;94;94;23.86;35.00
26.08.2021 09:00;1;99;99;22.74;35.00
26.08.2021 09:30;1;96;96;22.71;37.00
26.08.2021 10:00;1;105;105;22.66;35.00
26.08.2021 10:30;1;99;99;22.62;36.00
26.08.2021 11:00;1;94;94;23.86;41.00
26.08.2021 11:30;1;116;116;23.13;35.00
26.08.2021 12:00;1;100;100;24.14;43.00
26.08.2021 12:30;1;119;119;22.87;39.00
26.08.2021 13:00;1;101;101;23.97;41.00
26.08.2021 13:30;1;113;113;23.70;46.00
26.08.2021 14:00;1;108;108;23.56;39.00
26.08.2021 14:30;1;106;106;23. Jul;41.00
26.08.2021 15:00;1;118;118;23. Nov;46.00
26.08.2021 15:30;1;102;102;22.68;39.00
26.08.2021 16:00;1;110;110;23.36;37.00
26.08.2021 16:30;1;103;103;22. Aug;34.00
26.08.2021 17:00;1;75;75;20.84;36.00
26.08.2021 17:30;1;108;108;21.81;48.00
26.08.2021 18:00;1;107;107;23. Feb;56.00
26.08.2021 18:30;1;108;108;23.42;50.00
26.08.2021 19:00;1;126;126;22.43;36.00
26.08.2021 19:30;1;97;97;24.15;48.00
26.08.2021 20:00;1;96;96;23.27;39.00
26.08.2021 20:30;1;86;86;23.49;48.00
26.08.2021 21:00;1;80;80;25.52;45.00
26.08.2021 21:30;1;66;66;24.24;38.00
26.08.2021 22:00;1;74;74;24.95;37.00
26.08.2021 22:30;1;43;43;23.93;40.00
26.08.2021 23:00;1;38;38;24.71;35.00
26.08.2021 23:30;1;33;33;25.85;34.00
27.08.2021 00:00;1;34;34;27.29;56.00
27.08.2021 00:30;1;19;19;25.58;39.00
27.08.2021 01:00;1;19;19;26.89;38.00
27.08.2021 01:30;1;8;8;32.75;43.00
27.08.2021 02:00;1;9;9;28.67;42.00
27.08.2021 02:30;1;3;3;29.33;36.00
27.08.2021 03:00;1;4;4;31.50;38.00
27.08.2021 03:30;1;2;2;27.00;29.00
27.08.2021 04:00;1;8;8;30.25;39.00
27.08.2021 04:30;1;4;4;25.00;41.00
27.08.2021 05:00;1;15;15;23.53;38.00
27.08.2021 05:30;1;20;20;22.80;37.00
27.08.2021 06:00;1;25;25;24.32;46.00
27.08.2021 06:30;1;40;40;22.60;31.00
27.08.2021 07:00;1;52;52;23.44;38.00
27.08.2021 07:30;1;59;59;24. Mrz;39.00
27.08.2021 08:00;1;74;74;24.70;44.00
27.08.2021 08:30;1;80;80;23.27;37.00
27.08.2021 09:00;1;92;92;23.26;35.00
27.08.2021 09:30;1;106;106;23.28;39.00
27.08.2021 10:00;1;87;87;23.25;38.00
27.08.2021 10:30;1;106;106;23.42;44.00
27.08.2021 11:00;1;100;100;24.13;43.00
27.08.2021 11:30;1;98;98;22.98;35.00
27.08.2021 12:00;1;126;126;23. Dez;40.00
27.08.2021 12:30;1;116;116;24.35;37.00
27.08.2021 13:00;1;115;115;22.99;40.00
27.08.2021 13:30;1;119;119;23.83;39.00
27.08.2021 14:00;1;126;126;23.94;40.00
27.08.2021 14:30;1;121;121;23.70;49.00
27.08.2021 15:00;1;117;117;23. Sep;48.00
27.08.2021 15:30;1;112;112;23.71;35.00
27.08.2021 16:00;1;125;125;23.38;40.00
27.08.2021 16:30;1;131;131;23.78;39.00
27.08.2021 17:00;1;119;119;23.13;48.00
27.08.2021 17:30;1;126;126;23.97;46.00
27.08.2021 18:00;1;121;121;23. Sep;41.00
27.08.2021 18:30;1;133;133;22.65;36.00
27.08.2021 19:00;1;130;130;23.55;51.00
27.08.2021 19:30;1;107;107;23.43;52.00
27.08.2021 20:00;1;101;101;24.16;72.00
27.08.2021 20:30;1;95;95;23.88;50.00
27.08.2021 21:00;1;89;89;24. Mrz;42.00
27.08.2021 21:30;1;75;75;25.75;60.00
27.08.2021 22:00;1;91;91;23.60;36.00
27.08.2021 22:30;1;63;63;25.52;42.00
27.08.2021 23:00;1;79;79;25.94;51.00
27.08.2021 23:30;1;53;53;27.15;41.00
28.08.2021 00:00;1;56;56;27.71;56.00
28.08.2021 00:30;1;44;44;26.82;37.00
28.08.2021 01:00;1;35;35;26.94;44.00
28.08.2021 01:30;1;27;27;27. Jul;38.00
28.08.2021 02:00;1;21;21;32.81;64.00
28.08.2021 02:30;1;32;32;32.84;55.00
28.08.2021 03:00;1;22;22;32.59;64.00
28.08.2021 03:30;1;23;23;30.57;38.00
28.08.2021 04:00;1;13;13;32.92;46.00
28.08.2021 04:30;1;15;15;31.13;46.00
28.08.2021 05:00;1;6;6;26.33;43.00
28.08.2021 05:30;1;23;23;25.39;43.00
28.08.2021 06:00;1;21;21;23.48;39.00
28.08.2021 06:30;1;31;31;22.84;34.00
28.08.2021 07:00;1;38;38;24.24;44.00
28.08.2021 07:30;1;45;45;23.71;37.00
28.08.2021 08:00;1;58;58;24.16;49.00
28.08.2021 08:30;1;78;78;24.24;45.00
28.08.2021 09:00;1;83;83;24.36;39.00
28.08.2021 09:30;1;71;71;24.48;36.00
28.08.2021 10:00;1;86;86;23.53;36.00
28.08.2021 10:30;1;93;93;24.47;43.00
28.08.2021 11:00;1;95;95;23.15;35.00
28.08.2021 11:30;1;111;111;23.82;47.00
28.08.2021 12:00;1;122;122;23.88;44.00
28.08.2021 12:30;1;115;115;23.34;39.00
28.08.2021 13:00;1;117;117;22.16;33.00
28.08.2021 13:30;1;88;88;22.52;37.00
28.08.2021 14:00;1;108;108;22.30;41.00
28.08.2021 14:30;1;88;88;21.65;37.00
28.08.2021 15:00;1;100;100;22.90;36.00
28.08.2021 15:30;1;87;87;22.24;38.00
28.08.2021 16:00;1;78;78;21.49;34.00
28.08.2021 16:30;1;104;104;22. Dez;34.00
28.08.2021 17:00;1;125;125;22.59;37.00
28.08.2021 17:30;1;127;127;23.62;56.00
28.08.2021 18:00;1;125;125;22.37;44.00
28.08.2021 18:30;1;105;105;22.95;34.00
28.08.2021 19:00;1;112;112;23.63;39.00
28.08.2021 19:30;1;105;105;24. Feb;39.00
28.08.2021 20:00;1;116;116;23.99;36.00
28.08.2021 20:30;1;107;107;23.67;41.00
28.08.2021 21:00;1;92;92;25. Jul;48.00
28.08.2021 21:30;1;80;80;25.43;48.00
28.08.2021 22:00;1;88;88;25. Feb;49.00
28.08.2021 22:30;1;74;74;26.65;47.00
28.08.2021 23:00;1;64;64;25.20;40.00
28.08.2021 23:30;1;53;53;27.43;57.00
29.08.2021 00:00;1;62;62;26.39;45.00
29.08.2021 00:30;1;53;53;27.00;49.00
29.08.2021 01:00;1;38;38;28. Nov;48.00
29.08.2021 01:30;1;34;34;32.65;49.00
29.08.2021 02:00;1;34;34;30.62;42.00
29.08.2021 02:30;1;20;20;32.65;42.00
29.08.2021 03:00;1;27;27;31.67;45.00
29.08.2021 03:30;1;16;16;31.88;48.00
29.08.2021 04:00;1;16;16;34.56;52.00
29.08.2021 04:30;1;5;5;31.80;37.00
29.08.2021 05:00;1;11;11;26.64;40.00
29.08.2021 05:30;1;7;7;31.43;43.00
29.08.2021 06:00;1;11;11;27.82;37.00
29.08.2021 06:30;1;22;22;24.55;33.00
29.08.2021 07:00;1;17;17;24.35;30.00
29.08.2021 07:30;1;28;28;24.54;38.00
29.08.2021 08:00;1;46;46;25.17;42.00
29.08.2021 08:30;1;53;53;25.75;46.00
29.08.2021 09:00;1;48;48;25.56;38.00
29.08.2021 09:30;1;57;57;24.84;43.00
29.08.2021 10:00;1;54;54;23.56;33.00
29.08.2021 10:30;1;79;79;24.15;39.00
29.08.2021 11:00;1;81;81;24.51;41.00
29.08.2021 11:30;1;91;91;24.97;37.00
29.08.2021 12:00;1;80;80;24.52;37.00
29.08.2021 12:30;1;83;83;24.58;44.00
29.08.2021 13:00;1;87;87;24.17;36.00
29.08.2021 13:30;1;102;102;23.70;38.00
29.08.2021 14:00;1;99;99;24.22;46.00
29.08.2021 14:30;1;101;101;24.43;46.00
29.08.2021 15:00;1;108;108;23.28;38.00
29.08.2021 15:30;1;101;101;23.80;35.00
29.08.2021 16:00;1;92;92;24.78;36.00
29.08.2021 16:30;1;117;117;24.40;40.00
29.08.2021 17:00;1;97;97;24.39;40.00
29.08.2021 17:30;1;114;114;24. Mai;42.00
29.08.2021 18:00;1;106;106;24.31;39.00
29.08.2021 18:30;1;85;85;25.60;38.00
29.08.2021 19:00;1;84;84;25.20;43.00
29.08.2021 19:30;1;73;73;25.15;45.00
29.08.2021 20:00;1;74;74;24.16;39.00
29.08.2021 20:30;1;68;68;25.78;43.00
29.08.2021 21:00;1;63;63;24.98;38.00
29.08.2021 21:30;1;64;64;25.27;48.00
29.08.2021 22:00;1;63;63;25.41;39.00
29.08.2021 22:30;1;49;49;26.61;43.00
29.08.2021 23:00;1;31;31;24.68;37.00
29.08.2021 23:30;1;25;25;27.56;42.00
30.08.2021 00:00;1;27;27;26.00;39.00
30.08.2021 00:30;1;14;14;23.71;42.00
30.08.2021 01:00;1;11;11;27.82;39.00
30.08.2021 01:30;1;5;5;28.60;35.00
30.08.2021 02:00;1;8;8;29. Dez;45.00
30.08.2021 02:30;1;6;6;25.00;33.00
30.08.2021 03:30;1;2;2;31.50;34.00
30.08.2021 04:00;1;2;2;26.00;27.00
30.08.2021 04:30;1;7;7;26.29;32.00
30.08.2021 05:00;1;18;18;25.89;42.00
30.08.2021 05:30;1;22;22;25.91;38.00
30.08.2021 06:00;1;25;25;24.44;37.00
30.08.2021 06:30;1;44;44;23. Nov;42.00
30.08.2021 07:00;1;60;60;24.20;34.00
30.08.2021 07:30;1;59;59;22.73;33.00
30.08.2021 08:00;1;70;70;24. Apr;34.00
30.08.2021 08:30;1;94;94;23.90;42.00
30.08.2021 09:00;1;95;95;24.21;35.00
30.08.2021 09:30;1;101;101;24.60;40.00
30.08.2021 10:00;1;97;97;23.91;38.00
30.08.2021 10:30;1;115;115;24.39;38.00
30.08.2021 11:00;1;109;109;24.26;35.00
30.08.2021 11:30;1;111;111;23.40;35.00
30.08.2021 12:00;1;129;129;24.98;48.00
30.08.2021 12:30;1;119;119;24.00;38.00
30.08.2021 13:00;1;105;105;23.69;36.00
30.08.2021 13:30;1;125;125;24.46;42.00
30.08.2021 14:00;1;133;133;24.53;41.00
30.08.2021 14:30;1;134;134;23.72;40.00
30.08.2021 15:00;1;128;128;24.26;37.00
30.08.2021 15:30;1;148;148;22.66;39.00
30.08.2021 16:00;1;142;142;24. Mrz;46.00
30.08.2021 16:30;1;151;151;23.17;34.00
30.08.2021 17:00;1;146;146;23.88;43.00
30.08.2021 17:30;1;142;142;24.95;41.00
30.08.2021 18:00;1;157;157;24.28;39.00
30.08.2021 18:30;1;107;107;24.18;38.00
30.08.2021 19:00;1;126;126;23.82;34.00
30.08.2021 19:30;1;105;105;24.59;39.00
30.08.2021 20:00;1;94;94;24.21;45.00
30.08.2021 20:30;1;83;83;24.57;40.00
30.08.2021 21:00;1;61;61;24.85;45.00
30.08.2021 21:30;1;47;47;25.74;38.00
30.08.2021 22:00;1;60;60;25.68;46.00
30.08.2021 22:30;1;52;52;25.88;54.00
30.08.2021 23:00;1;39;39;27.13;59.00
30.08.2021 23:30;1;35;35;26.43;44.00
31.08.2021 00:00;1;24;24;24.71;38.00
31.08.2021 00:30;1;12;12;25.50;42.00
31.08.2021 01:00;1;12;12;31.17;45.00
31.08.2021 01:30;1;9;9;27.89;43.00
31.08.2021 02:00;1;10;10;31.80;43.00
31.08.2021 02:30;1;6;6;33.00;41.00
31.08.2021 03:00;1;2;2;32.50;38.00
31.08.2021 03:30;1;3;3;33.33;38.00
31.08.2021 04:00;1;1;1;24.00;24.00
31.08.2021 04:30;1;9;9;27.00;36.00
31.08.2021 05:00;1;18;18;26.72;45.00
31.08.2021 05:30;1;20;20;25.95;43.00
31.08.2021 06:00;1;29;29;24.52;34.00
31.08.2021 06:30;1;43;43;22.91;45.00
31.08.2021 07:00;1;63;63;24.33;36.00
31.08.2021 07:30;1;69;69;24.78;38.00
31.08.2021 08:00;1;73;73;23.96;37.00
31.08.2021 08:30;1;90;90;23.97;47.00
31.08.2021 09:00;1;90;90;23.81;34.00
31.08.2021 09:30;1;109;109;24.50;41.00
31.08.2021 10:00;1;104;104;23.87;39.00
31.08.2021 10:30;1;97;97;23.80;39.00
31.08.2021 11:00;1;112;112;24.73;40.00
31.08.2021 11:30;1;109;109;24. Okt;36.00
31.08.2021 12:00;1;135;135;24. Mrz;35.00
31.08.2021 12:30;1;114;114;22.70;52.00
31.08.2021 13:00;1;109;109;23.87;35.00
31.08.2021 13:30;1;119;119;23.45;36.00
31.08.2021 14:00;1;130;130;24.34;37.00
31.08.2021 14:30;1;130;130;23.93;37.00
31.08.2021 15:00;1;125;125;24.39;42.00
31.08.2021 15:30;1;144;144;23.70;38.00
31.08.2021 16:00;1;152;152;24.52;40.00
31.08.2021 16:30;1;137;137;23.64;43.00
31.08.2021 17:00;1;149;149;23.95;44.00
31.08.2021 17:30;1;131;131;24.72;45.00
31.08.2021 18:00;1;151;151;23.57;48.00
31.08.2021 18:30;1;137;137;24.44;39.00
31.08.2021 19:00;1;129;129;24. Feb;43.00
31.08.2021 19:30;1;126;126;23.14;34.00
31.08.2021 20:00;1;115;115;23.97;39.00
31.08.2021 20:30;1;67;67;24.60;46.00
31.08.2021 21:00;1;71;71;25. Jun;55.00
31.08.2021 21:30;1;68;68;25.84;56.00
31.08.2021 22:00;1;54;54;26. Jun;52.00
31.08.2021 22:30;1;50;50;26. Jun;51.00
31.08.2021 23:00;1;41;41;24.63;37.00
31.08.2021 23:30;1;26;26;27.00;40.00
01.09.2021 00:00;1;30;30;25.70;38.00
01.09.2021 00:30;1;16;16;27.50;39.00
01.09.2021 01:00;1;12;12;28. Aug;44.00
01.09.2021 01:30;1;7;7;28.43;40.00
01.09.2021 02:00;1;10;10;29.20;40.00
01.09.2021 02:30;1;2;2;25.00;27.00
01.09.2021 03:30;1;3;3;32.67;38.00
01.09.2021 04:00;1;4;4;27.50;35.00
01.09.2021 04:30;1;14;14;28.43;45.00
01.09.2021 05:00;1;18;18;27.94;47.00
01.09.2021 05:30;1;23;23;23. Sep;35.00
01.09.2021 06:00;1;32;32;24.81;38.00
01.09.2021 06:30;1;43;43;23.30;36.00
01.09.2021 07:00;1;56;56;23. Sep;30.00
01.09.2021 07:30;1;79;79;24.28;36.00
01.09.2021 08:00;1;79;79;23.18;34.00
01.09.2021 08:30;1;90;90;23.83;51.00
01.09.2021 09:00;1;86;86;23.81;40.00
01.09.2021 09:30;1;107;107;23.96;36.00
01.09.2021 10:00;1;89;89;23.62;34.00
01.09.2021 10:30;1;111;111;24.97;40.00
01.09.2021 11:00;1;109;109;23.39;39.00
01.09.2021 11:30;1;120;120;23.62;42.00
01.09.2021 12:00;1;132;132;24. Dez;38.00
01.09.2021 12:30;1;110;110;22.87;34.00
01.09.2021 13:00;1;100;100;23.58;46.00
01.09.2021 13:30;1;109;109;24.39;44.00
01.09.2021 14:00;1;117;117;23.40;36.00
01.09.2021 14:30;1;119;119;23.78;53.00
01.09.2021 15:00;1;134;134;23.49;36.00
01.09.2021 15:30;1;136;136;23.53;36.00
01.09.2021 16:00;1;145;145;23.28;34.00
01.09.2021 16:30;1;140;140;23.20;35.00
01.09.2021 17:00;1;139;139;23.78;40.00
01.09.2021 17:30;1;131;131;23.98;43.00
01.09.2021 18:00;1;151;151;23.15;50.00
01.09.2021 18:30;1;141;141;23.82;51.00
01.09.2021 19:00;1;148;148;24.23;40.00
01.09.2021 19:30;1;138;138;24.35;46.00
01.09.2021 20:00;1;134;134;24.21;44.00
01.09.2021 20:30;1;100;100;24. Sep;54.00
01.09.2021 21:00;1;91;91;24. Apr;36.00
01.09.2021 21:30;1;56;56;24.71;53.00
01.09.2021 22:00;1;73;73;25.70;45.00
01.09.2021 22:30;1;58;58;24.50;33.00
01.09.2021 23:00;1;51;51;25.35;40.00
01.09.2021 23:30;1;34;34;28.41;49.00
02.09.2021 00:00;1;25;25;25.44;43.00
02.09.2021 00:30;1;13;13;26.31;39.00
02.09.2021 01:00;1;18;18;30.72;40.00
02.09.2021 01:30;1;8;8;32.38;58.00
02.09.2021 02:00;1;9;9;28.56;37.00
02.09.2021 02:30;1;1;1;24.00;24.00
02.09.2021 03:00;1;1;1;31.00;31.00
02.09.2021 03:30;1;1;1;28.00;28.00
02.09.2021 04:00;1;3;3;32.33;33.00
02.09.2021 04:30;1;11;11;27.73;39.00
02.09.2021 05:00;1;15;15;24.80;34.00
02.09.2021 05:30;1;19;19;24.26;38.00
02.09.2021 06:00;1;32;32;25.78;38.00
02.09.2021 06:30;1;44;44;22.98;37.00
02.09.2021 07:00;1;54;54;23.52;35.00
02.09.2021 07:30;1;78;78;24.24;38.00
02.09.2021 08:00;1;75;75;23.45;35.00
02.09.2021 08:30;1;83;83;24.40;36.00
02.09.2021 09:00;1;96;96;23.55;38.00
02.09.2021 09:30;1;105;105;24.18;38.00
02.09.2021 10:00;1;98;98;23.41;34.00
02.09.2021 10:30;1;101;101;23.62;35.00
02.09.2021 11:00;1;104;104;24. Okt;39.00
02.09.2021 11:30;1;105;105;23.63;36.00
02.09.2021 12:00;1;125;125;23.61;39.00
02.09.2021 12:30;1;130;130;24.24;40.00
02.09.2021 13:00;1;105;105;23.86;50.00
02.09.2021 13:30;1;120;120;23.45;35.00
02.09.2021 14:00;1;135;135;23.90;44.00
02.09.2021 14:30;1;140;140;24.53;43.00
02.09.2021 15:00;1;133;133;23.73;35.00
02.09.2021 15:30;1;145;145;24. Jan;40.00
02.09.2021 16:00;1;138;138;25. Dez;48.00
02.09.2021 16:30;1;148;148;23.18;50.00
02.09.2021 17:00;1;117;117;23.57;42.00
02.09.2021 17:30;1;153;153;24. Aug;41.00
02.09.2021 18:00;1;168;168;23.49;42.00
02.09.2021 18:30;1;136;136;24.19;44.00
02.09.2021 19:00;1;150;150;24.47;44.00
02.09.2021 19:30;1;142;142;23.75;57.00
02.09.2021 20:00;1;125;125;24.14;57.00
02.09.2021 20:30;1;96;96;23.19;43.00
02.09.2021 21:00;1;96;96;24. Apr;50.00
02.09.2021 21:30;1;70;70;24.76;42.00
02.09.2021 22:00;1;83;83;25.67;43.00
02.09.2021 22:30;1;63;63;28. Nov;59.00
02.09.2021 23:00;1;60;60;25.53;51.00
02.09.2021 23:30;1;37;37;25.78;42.00
03.09.2021 00:00;1;31;31;25.42;37.00
03.09.2021 00:30;1;18;18;31.06;42.00
03.09.2021 01:00;1;13;13;27.85;41.00
03.09.2021 01:30;1;12;12;30.92;45.00
03.09.2021 02:00;1;8;8;26.25;39.00
03.09.2021 02:30;1;2;2;32.50;36.00
03.09.2021 03:30;1;3;3;23.67;31.00
03.09.2021 04:00;1;6;6;30.33;42.00
03.09.2021 04:30;1;9;9;26. Nov;39.00
03.09.2021 05:00;1;13;13;24.38;36.00
03.09.2021 05:30;1;27;27;24.30;39.00
03.09.2021 06:00;1;30;30;24.93;34.00
03.09.2021 06:30;1;43;43;23.26;33.00
03.09.2021 07:00;1;54;54;23.13;37.00
03.09.2021 07:30;1;72;72;23.83;37.00
03.09.2021 08:00;1;77;77;23. Sep;36.00
03.09.2021 08:30;1;74;74;23.70;40.00
03.09.2021 09:00;1;86;86;23.57;33.00
03.09.2021 09:30;1;119;119;23.18;34.00
03.09.2021 10:00;1;107;107;24.25;36.00
03.09.2021 10:30;1;101;101;23.63;45.00
03.09.2021 11:00;1;129;129;24.70;44.00
03.09.2021 11:30;1;128;128;24.59;34.00
03.09.2021 12:00;1;118;118;23.91;39.00
03.09.2021 12:30;1;111;111;23.15;42.00
03.09.2021 13:00;1;101;101;23.80;38.00
03.09.2021 13:30;1;118;118;24.29;48.00
03.09.2021 14:00;1;118;118;23.35;41.00
03.09.2021 14:30;1;111;111;23.72;39.00
03.09.2021 15:00;1;119;119;23.43;36.00
03.09.2021 15:30;1;119;119;23.28;41.00
03.09.2021 16:00;1;112;112;22.89;43.00
03.09.2021 16:30;1;134;134;22.93;37.00
03.09.2021 17:00;1;125;125;23.92;48.00
03.09.2021 17:30;1;103;103;23.21;33.00
03.09.2021 18:00;1;122;122;23.33;46.00
03.09.2021 18:30;1;136;136;24.27;50.00
03.09.2021 19:00;1;139;139;23.51;45.00
03.09.2021 19:30;1;101;101;23. Mai;58.00
03.09.2021 20:00;1;122;122;23.63;51.00
03.09.2021 20:30;1;95;95;23.58;42.00
03.09.2021 21:00;1;86;86;24.60;42.00
03.09.2021 21:30;1;80;80;23.76;62.00
03.09.2021 22:00;1;91;91;24.58;48.00
03.09.2021 22:30;1;92;92;25.41;58.00
03.09.2021 23:00;1;72;72;24.90;44.00
03.09.2021 23:30;1;43;43;27.58;39.00
04.09.2021 00:00;1;61;61;27.52;50.00
04.09.2021 00:30;1;47;47;27.77;48.00
04.09.2021 01:00;1;49;49;27.35;45.00
04.09.2021 01:30;1;35;35;30.29;43.00
04.09.2021 02:00;1;34;34;27.71;47.00
04.09.2021 02:30;1;30;30;29.00;45.00
04.09.2021 03:00;1;21;21;31.57;43.00
04.09.2021 03:30;1;12;12;34.92;45.00
04.09.2021 04:00;1;13;13;30.85;51.00
04.09.2021 04:30;1;8;8;27.38;35.00
04.09.2021 05:00;1;13;13;26.15;40.00
04.09.2021 05:30;1;17;17;25. Dez;41.00
04.09.2021 06:00;1;20;20;25.85;34.00
04.09.2021 06:30;1;25;25;24.48;42.00
04.09.2021 07:00;1;27;27;24. Apr;38.00
04.09.2021 07:30;1;39;39;23.18;33.00
04.09.2021 08:00;1;65;65;23.89;37.00
04.09.2021 08:30;1;97;97;24.40;35.00
04.09.2021 09:00;1;90;90;24. Jul;43.00
04.09.2021 09:30;1;77;77;23.68;36.00
04.09.2021 10:00;1;85;85;24.71;36.00
04.09.2021 10:30;1;90;90;23.60;40.00
04.09.2021 11:00;1;96;96;24.50;58.00
04.09.2021 11:30;1;116;116;23.77;41.00
04.09.2021 12:00;1;102;102;23.56;43.00
04.09.2021 12:30;1;103;103;22.95;34.00
04.09.2021 13:00;1;122;122;23.67;40.00
04.09.2021 13:30;1;88;88;21.92;34.00
04.09.2021 14:00;1;82;82;22. Mai;40.00
04.09.2021 14:30;1;106;106;23.24;46.00
04.09.2021 15:00;1;101;101;22.28;39.00
04.09.2021 15:30;1;94;94;21.63;48.00
04.09.2021 16:00;1;124;124;22.81;41.00
04.09.2021 16:30;1;98;98;22.96;50.00
04.09.2021 17:00;1;108;108;24. Dez;61.00
04.09.2021 17:30;1;107;107;22. Okt;39.00
04.09.2021 18:00;1;121;121;23.22;39.00
04.09.2021 18:30;1;117;117;22.90;49.00
04.09.2021 19:00;1;118;118;22.81;41.00
04.09.2021 19:30;1;126;126;22.87;42.00
04.09.2021 20:00;1;114;114;22.63;37.00
04.09.2021 20:30;1;123;123;23.89;52.00
04.09.2021 21:00;1;110;110;24.49;48.00
04.09.2021 21:30;1;105;105;24.37;44.00
04.09.2021 22:00;1;93;93;25. Mrz;47.00
04.09.2021 22:30;1;87;87;25.16;54.00
04.09.2021 23:00;1;76;76;24.93;39.00
04.09.2021 23:30;1;55;55;25.55;40.00
05.09.2021 00:00;1;71;71;25.38;55.00
05.09.2021 00:30;1;51;51;27.75;48.00
05.09.2021 01:00;1;62;62;26.87;43.00
05.09.2021 01:30;1;45;45;26. Feb;48.00
05.09.2021 02:00;1;39;39;27.97;42.00
05.09.2021 02:30;1;36;36;30.28;43.00
05.09.2021 03:00;1;25;25;29.96;43.00
05.09.2021 03:30;1;19;19;33.47;43.00
05.09.2021 04:00;1;15;15;30.00;43.00
05.09.2021 04:30;1;7;7;35.29;46.00
05.09.2021 05:00;1;9;9;28.89;45.00
05.09.2021 05:30;1;9;9;28.89;44.00
05.09.2021 06:00;1;15;15;29.20;52.00
05.09.2021 06:30;1;11;11;24.64;43.00
05.09.2021 07:00;1;20;20;26. Mai;44.00
05.09.2021 07:30;1;32;32;25.53;44.00
05.09.2021 08:00;1;32;32;24.34;37.00
05.09.2021 08:30;1;47;47;23.83;51.00
05.09.2021 09:00;1;63;63;24.84;37.00
05.09.2021 09:30;1;55;55;24.71;36.00
05.09.2021 10:00;1;69;69;25. Jan;38.00
05.09.2021 10:30;1;85;85;23.45;37.00
05.09.2021 11:00;1;85;85;24.18;46.00
05.09.2021 11:30;1;91;91;24.69;33.00
05.09.2021 12:00;1;102;102;24.38;43.00
05.09.2021 12:30;1;111;111;23.83;42.00
05.09.2021 13:00;1;104;104;23.97;43.00
05.09.2021 13:30;1;112;112;25.49;46.00
05.09.2021 14:00;1;103;103;24. Apr;65.00
05.09.2021 14:30;1;120;120;24.38;41.00
05.09.2021 15:00;1;99;99;24.45;43.00
05.09.2021 15:30;1;137;137;24.29;40.00
05.09.2021 16:00;1;125;125;23.58;42.00
05.09.2021 16:30;1;127;127;24.70;54.00
05.09.2021 17:00;1;136;136;23.46;36.00
05.09.2021 17:30;1;130;130;23.63;43.00
05.09.2021 18:00;1;121;121;24.38;41.00
05.09.2021 18:30;1;140;140;24.60;43.00
05.09.2021 19:00;1;132;132;25.42;56.00
05.09.2021 19:30;1;110;110;24. Dez;61.00
05.09.2021 20:00;1;106;106;25. Okt;53.00
05.09.2021 20:30;1;76;76;25.22;57.00
05.09.2021 21:00;1;95;95;25.81;58.00
05.09.2021 21:30;1;62;62;25.40;42.00
05.09.2021 22:00;1;56;56;26.75;40.00
05.09.2021 22:30;1;55;55;25.33;41.00